Zurück zum Katalog

NIMBUS 2 DEB

AktivSSO
NORAD 59972·DEBRIS·🇺🇸 United States

Gestartet May 15, 1966 von Vandenberg Space Force Base

Loading…

Nächste Überflüge (nächste 24 Stunden)

TLE

AktuellSource: Space-Track

Epoche: Sep 14, 2026, 13:54 UTC

1 59972U 66040CB  26257.57968179  .00000975  00000-0  18680-2 0  9998
2 59972 100.4343 109.4960 0050080  44.4315 316.0813 13.39903595271720

Verfolge NIMBUS 2 DEB in Echtzeit mit AllMySat

Download on the App Store